Location: Radomski Observatory
(40.2854°N, 79.5145°W)
Time: 06:04:03
(UTC-04:00)

Daily predictions for brighter satellites

Satellite Brightness Start Highest point End
(mag) Time Altitude Azimuth Time Altitude Azimuth Time Altitude Azimuth
SL-16 R/B 4.2 21:03:50 10° SW 21:08:58 35° WNW 21:14:09 10° N
BREEZE-M DEB (TANK) 1.9 21:08:27 10° NW 21:11:14 65° SW 21:13:21 10° SE
Resurs 01 Rocket 4.3 21:09:11 10° SW 21:12:14 18° W 21:15:19 10° NW
SJ-11-01 4.4 21:10:30 10° SSE 21:15:04 59° ENE 21:19:41 10° N
Envisat 3.6 21:17:49 10° SE 21:22:33 41° ENE 21:27:19 10° N
GEOS 3 Rocket 3.7 21:18:50 10° SE 21:24:05 74° NE 21:29:17 10° NNW
Cosmos 407 Rocket 4.3 21:20:11 10° SSE 21:24:44 30° E 21:29:15 10° NE
Milstar 3 Cent rocket 4.4 21:21:13 10° WSW 21:26:52 17° SW 21:30:56 10° S
Cosmos 1515 3.9 21:29:47 10° S 21:33:32 52° E 21:37:18 10° NNE
CZ-2C R/B 1.4 21:32:04 10° S 21:34:15 44° W 21:36:27 10° NNW
Cosmos 1602 Rocket 4.2 21:30:51 10° SSW 21:35:16 62° W 21:39:42 10° N
SL-27 R/B 4.5 21:36:56 11° E 21:37:11 11° E 21:38:02 10° E
Cosmos 1825 Rocket 4.0 21:34:29 10° SSE 21:38:41 43° E 21:42:53 10° NNE
USA 186 4.2 21:41:52 10° SW 21:43:34 15° W 21:45:14 10° WNW
ALOS 4.0 21:41:44 10° SSW 21:45:51 31° W 21:50:00 10° NNW
Cosmos 1943 Rocket 3.4 21:41:31 10° N 21:46:16 28° ENE 21:50:21 13° ESE
Cosmos 1812 Rocket 3.8 21:42:36 10° NNW 21:47:00 71° W 21:51:24 10° S
Lacrosse 4 Rocket 1.2 21:43:34 10° SSW 21:47:34 67° ESE 21:51:38 10° NNE
Atlas Centaur 2 3.4 21:47:56 10° WSW 21:54:17 38° S 22:00:12 16° ESE
Cosmos 1992 Rocket 4.1 21:50:18 10° NNW 21:55:32 78° WSW 22:00:17 12° SSE
SeaSat 1 2.9 21:52:49 16° SE 21:56:31 48° ENE 22:01:15 10° NNW
Cosmos 1943 3.3 21:51:58 10° SSW 21:57:39 85° WNW 22:03:23 10° NNE
ISS -0.6 21:55:27 10° WNW 21:58:06 22° NNW 22:00:45 10° NNE
H-2A R/B 2.8 21:54:12 10° S 21:58:21 50° W 22:02:39 10° NNW
SL-23 DEB 4.5 21:59:14 10° SW 22:06:30 69° SE 22:10:38 10° ENE
USA 81 4.0 22:07:27 10° N 22:12:46 89° E 22:17:13 15° S
CZ-4B R/B 3.5 22:09:01 10° NNE 22:14:10 67° ESE 22:19:12 11° S
CZ-4 R/B 4.3 22:10:13 10° NNE 22:15:03 46° E 22:18:13 20° SSE
Cosmos 1953 3.7 22:12:45 10° NNE 22:16:01 24° ENE 22:17:07 21° E
Cosmos 1939 Rocket 4.1 22:12:59 10° SSW 22:16:53 39° W 22:20:47 10° NNW
PSLV R/B 3.3 22:15:51 10° W 22:19:25 86° N 22:21:15 27° E
Terra 3.3 22:19:02 18° E 22:21:03 23° ENE 22:24:47 10° NNE
ARGOS 3.4 22:18:01 23° SE 22:21:17 56° ENE 22:26:37 10° N
ATLAS 3B R/B 3.2 22:14:42 10° SW 22:22:24 74° NW 22:29:57 10° NNE
Cosmos 1346 Rocket 2.9 22:19:41 11° SSW 22:23:21 72° W 22:27:19 10° N
SPOT 5 3.2 22:21:02 16° S 22:24:26 53° W 22:28:41 10° NNW
USA 245 4.0 22:21:18 22° SSE 22:25:06 77° ENE 22:29:53 10° N
Cosmos-2242 3.7 22:22:17 10° N 22:26:28 41° ENE 22:28:02 30° SE
Cosmos 1842 3.5 22:25:37 33° SE 22:26:59 48° E 22:30:46 10° NNE
Cosmos 1953 Rocket 3.8 22:23:11 11° SSW 22:27:21 72° W 22:31:49 10° N
Cosmos 1634 Rocket 4.2 22:21:46 10° NNW 22:27:55 73° W 22:33:07 15° S
MetOp-B 4.3 22:24:18 18° S 22:28:17 74° WSW 22:33:40 10° NNW
Cosmos 1140 Rocket 3.9 22:26:31 25° SSE 22:29:08 43° ESE 22:34:04 10° NNE
H-2A R/B 2.8 22:33:42 26° ESE 22:35:43 36° ENE 22:40:21 10° N
NOSS 3-2 (A) 4.5 22:35:28 23° ESE 22:35:52 24° ESE 22:40:48 10° ENE
Meteor 1-21 4.2 22:31:59 14° S 22:36:57 87° E 22:42:49 10° N
SL-8 R/B 4.5 22:33:10 10° NW 22:37:53 49° NNE 22:41:05 19° E
Cosmos 1607 4.1 22:32:57 15° S 22:37:55 49° ESE 22:43:53 10° NE
Cosmos 676 Rocket 4.2 22:34:50 10° SSW 22:40:09 73° WNW 22:45:30 10° NNE
Cosmos 2369 Rocket 3.1 22:35:29 10° NW 22:40:46 42° WSW 22:44:34 18° SSW
USA 234 3.5 22:37:09 21° ESE 22:41:40 62° NE 22:48:09 10° NW
SPOT 1/Viking Rocket 3.7 22:41:55 26° S 22:44:53 71° WSW 22:50:03 10° NNW
YAOGAN 6 3.3 22:43:54 29° SSW 22:45:30 51° W 22:49:10 10° NNW
Cosmos 2279 Rocket 4.0 22:40:13 10° N 22:46:30 89° W 22:50:14 26° S
Cosmos 1932 4.4 22:40:50 10° SSW 22:47:01 86° WNW 22:53:18 10° NNE
Cosmos 614 Rocket 4.4 22:48:02 36° SE 22:49:11 41° ESE 22:54:03 10° NNE
SL-08 RB Rocket 3.6 22:51:27 38° S 22:53:10 85° WSW 22:57:42 10° NNW
Cosmos 1766 3.8 22:49:47 10° NNW 22:53:43 56° W 22:55:14 33° SSW
NOAA 11 4.2 22:51:03 31° S 22:53:44 82° WSW 22:59:11 10° NNW
SAR-Lupe-2 3.8 22:58:16 53° E 22:58:27 53° ENE 23:01:58 10° N
Cosmos 1340 4.2 23:00:50 24° ENE 23:00:50 24° ENE 23:03:13 10° NE
Cosmos 1544 4.1 22:58:35 10° NNE 23:01:55 33° ENE 23:01:55 33° ENE
CARTOSAT-1 3.7 23:02:00 50° SE 23:02:51 62° ENE 23:07:08 10° N
CZ-4C R/B 2.9 23:03:35 32° ESE 23:03:35 32° ESE 23:08:20 10° NE
Cosmos 1758 3.3 23:00:44 10° N 23:04:53 89° ESE 23:05:36 60° S
USA 238 DEB 3.8 23:02:52 10° SW 23:09:59 80° NW 23:17:05 10° NNE
USA 238 3.8 23:02:58 10° SW 23:10:04 81° NW 23:17:11 10° NNE
SL-27 R/B 3.9 23:10:37 23° WSW 23:12:05 34° WNW 23:15:11 10° N
DMSP B5D2-2 4.0 23:11:22 10° NNE 23:16:40 72° ESE 23:18:08 47° S
Cosmos 1470 3.4 23:15:54 10° N 23:19:20 41° ENE 23:19:20 41° ENE
Cosmos 1805 3.3 23:16:13 10° NNW 23:20:09 68° W 23:20:29 64° SW
IGS 5A 3.3 23:19:53 73° SE 23:20:15 83° ENE 23:24:26 10° N
COSMOS 2487 3.0 23:24:52 55° NE 23:24:52 55° NE 23:27:46 10° NNE
COSMOS 2406 3.6 23:21:23 16° SW 23:25:55 63° WNW 23:31:38 10° NNE
Cosmos 1943 Rocket 3.0 23:24:55 10° NW 23:30:07 41° WSW 23:31:53 32° SSW
Cosmos 1842 Rocket 3.6 23:28:17 10° NNW 23:32:41 72° W 23:33:08 65° SW
Cosmos 2084 4.4 23:29:43 10° NW 23:33:34 35° WSW 23:33:35 35° WSW
Cosmos 2082 Rocket 4.1 23:34:49 15° E 23:34:49 15° E 23:37:03 10° ENE
SeaSat 1 4.2 23:32:37 19° SW 23:34:13 22° WSW 23:38:01 10° NW
ISS 0.1 23:34:16 10° NNW 23:35:28 11° N 23:36:40 10° NNE
Cosmos 1656 Rocket 3.6 23:31:20 10° NNW 23:37:02 79° WSW 23:38:15 56° S
CZ-4B R/B 4.3 23:37:33 10° ENE 23:37:33 10° ENE 23:38:03 10° NE
Cosmos 2208 Rocket 4.4 23:37:25 10° NNW 23:42:26 52° WSW 23:43:24 45° SW
Atlas Centaur 2 3.9 23:36:56 10° WSW 23:42:49 29° SSW 23:42:49 29° SSW
NOSS 3-2 (C) 3.4 23:43:08 53° SSE 23:44:13 61° ESE 23:50:42 10° NE
Cosmos 1707 3.2 23:50:19 58° NNE 23:50:19 58° NNE 23:53:32 10° N
Cosmos 1953 4.2 23:49:15 10° NW 23:52:21 22° W 23:52:53 21° W
Cosmos 1076 Rocket 4.4 23:56:04 39° ENE 23:56:04 39° ENE 23:59:12 10° NNE
